Location: Zagreb
(45.8000°N, 16.0000°E)
Time: 08:24:43
(UTC+02:00)

Courier 1B Rocket - Pass Details

Date: 15 August 2022
Orbit: 920 x 1202 km, 28.2° (Epoch: 25 September)

Event Time Altitude Azimuth Distance (km) Brightness Sun altitude
Rises 18:06:33 0° 239° (WSW) 3,545 8.9 19.3°
Reaches altitude 10° 18:10:21 10° 217° (SW) 2,611 7.9 18.6°
Maximum altitude 18:13:41 15° 184° (S) 2,294 7.1 18.0°
Drops below altitude 10° 18:17:03 10° 152° (SSE) 2,659 7.1 17.4°
Sets 18:20:59 0° 130° (SE) 3,650 7.5 16.8°
